Time,TemperatureF,DewpointF,PressureIn,WindDirection,WindDirectionDegrees,WindSpeedMPH,WindSpeedGustMPH,Humidity,HourlyPrecipIn,Conditions,Clouds,dailyrainin,SoftwareType,DateUTC
2013-03-13 00:02:00,19.0,12.0,-100.00,NNW,330,13.0,17.0,72,0.00,,,0.00,,2013-03-13 05:02:00,
2013-03-13 00:12:00,19.0,12.0,-100.00,NNW,335,14.0,20.0,73,0.00,,,0.00,,2013-03-13 05:12:00,
2013-03-13 00:22:00,19.0,12.0,-100.00,NNW,330,11.0,17.0,73,0.00,,,0.00,,2013-03-13 05:22:00,
2013-03-13 00:32:00,19.0,12.0,-100.00,NNW,330,12.0,17.0,74,0.00,,,0.00,,2013-03-13 05:32:00,
2013-03-13 00:42:00,18.0,12.0,-100.00,NNW,330,12.0,17.0,74,0.00,,,0.00,,2013-03-13 05:42:00,
2013-03-13 00:52:00,18.0,12.0,-100.00,NNW,335,10.0,16.0,75,0.00,,,0.00,,2013-03-13 05:52:00,
2013-03-13 01:02:00,18.0,12.0,-100.00,NNW,330,11.0,15.0,75,0.00,,,0.00,,2013-03-13 06:02:00,
2013-03-13 01:12:00,18.0,12.0,-100.00,NW,325,13.0,17.0,75,0.00,,,0.00,,2013-03-13 06:12:00,
2013-03-13 01:22:00,18.0,12.0,-100.00,NNW,330,11.0,16.0,76,0.00,,,0.00,,2013-03-13 06:22:00,
2013-03-13 01:32:00,18.0,12.0,-100.00,NNW,330,11.0,15.0,76,0.00,,,0.00,,2013-03-13 06:32:00,
2013-03-13 01:42:00,17.0,12.0,-100.00,NW,325,11.0,16.0,77,0.00,,,0.00,,2013-03-13 06:42:00,
2013-03-13 01:52:00,17.0,12.0,-100.00,NW,325,10.0,15.0,77,0.00,,,0.00,,2013-03-13 06:52:00,
2013-03-13 02:02:00,17.0,12.0,-100.00,NNW,330,9.0,14.0,78,0.00,,,0.00,,2013-03-13 07:02:00,
2013-03-13 02:12:00,17.0,10.0,-100.00,NNW,335,9.0,13.0,78,0.00,,,0.00,,2013-03-13 07:12:00,
2013-03-13 02:22:00,17.0,10.0,-100.00,NNW,330,10.0,13.0,79,0.00,,,0.00,,2013-03-13 07:22:00,
2013-03-13 02:32:00,17.0,10.0,-100.00,NNW,330,10.0,14.0,79,0.00,,,0.00,,2013-03-13 07:32:00,
2013-03-13 02:42:00,16.0,10.0,-100.00,NNW,330,8.0,12.0,80,0.00,,,0.00,,2013-03-13 07:42:00,
2013-03-13 02:52:00,16.0,10.0,-100.00,NW,325,9.0,12.0,80,0.00,,,0.00,,2013-03-13 07:52:00,
2013-03-13 03:03:00,16.0,10.0,-100.00,NW,315,8.0,14.0,81,0.00,,,0.00,,2013-03-13 08:03:00,
2013-03-13 03:12:00,15.0,10.0,-100.00,NW,315,9.0,11.0,81,0.00,,,0.00,,2013-03-13 08:12:00,
2013-03-13 03:22:00,15.0,10.0,-100.00,NW,320,9.0,12.0,82,0.00,,,0.00,,2013-03-13 08:22:00,
2013-03-13 03:32:00,15.0,10.0,-100.00,NW,315,10.0,13.0,82,0.00,,,0.00,,2013-03-13 08:32:00,
2013-03-13 03:42:00,15.0,10.0,-100.00,NW,320,9.0,12.0,82,0.00,,,0.00,,2013-03-13 08:42:00,
2013-03-13 03:52:00,15.0,10.0,-100.00,NW,310,8.0,13.0,83,0.00,,,0.00,,2013-03-13 08:52:00,
2013-03-13 04:02:00,14.0,10.0,-100.00,NW,315,10.0,13.0,83,0.00,,,0.00,,2013-03-13 09:02:00,
2013-03-13 04:12:00,14.0,10.0,-100.00,NW,305,7.0,12.0,84,0.00,,,0.00,,2013-03-13 09:12:00,
2013-03-13 04:22:00,13.0,10.0,-100.00,NW,315,7.0,10.0,85,0.00,,,0.00,,2013-03-13 09:22:00,
2013-03-13 04:32:00,13.0,10.0,-100.00,NW,320,7.0,12.0,85,0.00,,,0.00,,2013-03-13 09:32:00,
2013-03-13 04:42:00,13.0,10.0,-100.00,NW,315,7.0,9.0,86,0.00,,,0.00,,2013-03-13 09:42:00,
2013-03-13 04:52:00,13.0,10.0,-100.00,NW,315,7.0,9.0,86,0.00,,,0.00,,2013-03-13 09:52:00,
2013-03-13 05:02:00,13.0,10.0,-100.00,WNW,300,3.0,9.0,86,0.00,,,0.00,,2013-03-13 10:02:00,
2013-03-13 05:12:00,13.0,9.0,-100.00,WNW,290,4.0,6.0,87,0.00,,,0.00,,2013-03-13 10:12:00,
2013-03-13 05:22:00,12.0,9.0,-100.00,WNW,290,2.0,4.0,87,0.00,,,0.00,,2013-03-13 10:22:00,
2013-03-13 05:32:00,12.0,9.0,-100.00,WNW,300,4.0,7.0,87,0.00,,,0.00,,2013-03-13 10:32:00,
2013-03-13 05:42:00,12.0,9.0,-100.00,WNW,295,5.0,7.0,88,0.00,,,0.00,,2013-03-13 10:42:00,
2013-03-13 05:52:00,12.0,9.0,-100.00,NW,305,4.0,6.0,88,0.00,,,0.00,,2013-03-13 10:52:00,
2013-03-13 06:02:00,12.0,9.0,-100.00,WNW,285,4.0,5.0,88,0.00,,,0.00,,2013-03-13 11:02:00,
2013-03-13 06:12:00,11.0,9.0,-100.00,West,280,5.0,7.0,89,0.00,,,0.00,,2013-03-13 11:12:00,
2013-03-13 06:22:00,11.0,9.0,-100.00,West,280,6.0,7.0,89,0.00,,,0.00,,2013-03-13 11:22:00,
2013-03-13 06:32:00,11.0,9.0,-100.00,WNW,290,7.0,9.0,90,0.00,,,0.00,,2013-03-13 11:32:00,
2013-03-13 06:42:00,11.0,9.0,-100.00,NW,305,7.0,10.0,90,0.00,,,0.00,,2013-03-13 11:42:00,
2013-03-13 06:52:00,11.0,9.0,-100.00,WNW,300,6.0,9.0,90,0.00,,,0.00,,2013-03-13 11:52:00,
2013-03-13 07:02:00,11.0,9.0,-100.00,WNW,300,4.0,7.0,90,0.00,,,0.00,,2013-03-13 12:02:00,
2013-03-13 07:12:00,11.0,9.0,-100.00,WNW,290,4.0,7.0,90,0.00,,,0.00,,2013-03-13 12:12:00,
2013-03-13 07:22:00,11.0,9.0,-100.00,WNW,285,4.0,4.0,90,0.00,,,0.00,,2013-03-13 12:22:00,
2013-03-13 07:32:00,9.0,7.0,-100.00,West,280,4.0,6.0,90,0.00,,,0.00,,2013-03-13 12:32:00,
2013-03-13 07:42:00,9.0,7.0,-100.00,West,270,5.0,7.0,90,0.00,,,0.00,,2013-03-13 12:42:00,
2013-03-13 07:52:00,10.0,9.0,-100.00,West,270,6.0,7.0,91,0.00,,,0.00,,2013-03-13 12:52:00,
2013-03-13 08:02:00,10.0,9.0,-100.00,WNW,290,6.0,7.0,91,0.00,,,0.00,,2013-03-13 13:02:00,
2013-03-13 08:11:00,11.0,9.0,-100.00,WNW,295,5.0,7.0,91,0.00,,,0.00,,2013-03-13 13:11:00,
2013-03-13 08:22:00,10.0,9.0,-100.00,West,280,6.0,7.0,91,0.00,,,0.00,,2013-03-13 13:22:00,
2013-03-13 08:33:00,10.0,7.0,-100.00,West,270,7.0,9.0,91,0.00,,,0.00,,2013-03-13 13:33:00,
2013-03-13 08:42:00,11.0,9.0,-100.00,West,275,7.0,9.0,91,0.00,,,0.00,,2013-03-13 13:42:00,
2013-03-13 08:52:00,10.0,9.0,-100.00,West,270,6.0,9.0,91,0.00,,,0.00,,2013-03-13 13:52:00,
2013-03-13 09:02:00,11.0,9.0,-100.00,West,270,6.0,7.0,90,0.00,,,0.00,,2013-03-13 14:02:00,
2013-03-13 09:12:00,11.0,9.0,-100.00,West,270,7.0,8.0,90,0.00,,,0.00,,2013-03-13 14:12:00,
2013-03-13 09:21:00,11.0,9.0,-100.00,West,265,6.0,7.0,90,0.00,,,0.00,,2013-03-13 14:21:00,
2013-03-13 09:33:00,12.0,10.0,-100.00,West,265,5.0,7.0,89,0.00,,,0.00,,2013-03-13 14:33:00,
2013-03-13 09:42:00,13.0,10.0,-100.00,West,265,5.0,7.0,88,0.00,,,0.00,,2013-03-13 14:42:00,
2013-03-13 09:52:00,12.0,9.0,-100.00,West,260,6.0,7.0,87,0.00,,,0.00,,2013-03-13 14:52:00,
2013-03-13 10:03:00,13.0,10.0,-100.00,West,270,5.0,8.0,87,0.00,,,0.00,,2013-03-13 15:03:00,
2013-03-13 10:12:00,13.0,10.0,-100.00,West,265,6.0,8.0,86,0.00,,,0.00,,2013-03-13 15:12:00,
2013-03-13 10:22:00,14.0,10.0,-100.00,West,275,5.0,7.0,85,0.00,,,0.00,,2013-03-13 15:22:00,
2013-03-13 10:32:00,15.0,10.0,-100.00,West,265,6.0,7.0,84,0.00,,,0.00,,2013-03-13 15:32:00,
2013-03-13 10:42:00,15.0,10.0,-100.00,West,275,6.0,7.0,83,0.00,,,0.00,,2013-03-13 15:42:00,
2013-03-13 10:52:00,15.0,10.0,-100.00,WNW,285,6.0,7.0,82,0.00,,,0.00,,2013-03-13 15:52:00,
2013-03-13 11:02:00,16.0,12.0,-100.00,West,275,5.0,9.0,81,0.00,,,0.00,,2013-03-13 16:02:00,
2013-03-13 11:12:00,16.0,12.0,-100.00,West,270,6.0,9.0,81,0.00,,,0.00,,2013-03-13 16:12:00,
2013-03-13 11:22:00,17.0,12.0,-100.00,West,280,6.0,8.0,80,0.00,,,0.00,,2013-03-13 16:22:00,
2013-03-13 11:32:00,17.0,12.0,-100.00,West,265,7.0,9.0,79,0.00,,,0.00,,2013-03-13 16:32:00,
2013-03-13 11:42:00,18.0,12.0,-100.00,West,260,7.0,9.0,78,0.00,,,0.00,,2013-03-13 16:42:00,
2013-03-13 11:52:00,18.0,12.0,-100.00,West,270,6.0,9.0,78,0.00,,,0.00,,2013-03-13 16:52:00,
2013-03-13 12:02:00,18.0,12.0,-100.00,West,265,6.0,9.0,77,0.00,,,0.00,,2013-03-13 17:02:00,
2013-03-13 12:12:00,19.0,12.0,-100.00,West,260,7.0,8.0,76,0.00,,,0.00,,2013-03-13 17:12:00,
2013-03-13 12:22:00,19.0,12.0,-100.00,West,270,7.0,8.0,75,0.00,,,0.00,,2013-03-13 17:22:00,
2013-03-13 12:32:00,20.0,14.0,-100.00,West,265,6.0,8.0,75,0.00,,,0.00,,2013-03-13 17:32:00,
2013-03-13 12:42:00,20.0,14.0,-100.00,West,265,7.0,9.0,74,0.00,,,0.00,,2013-03-13 17:42:00,
2013-03-13 12:53:00,21.0,14.0,-100.00,West,265,6.0,8.0,74,0.00,,,0.00,,2013-03-13 17:53:00,
2013-03-13 13:02:00,21.0,14.0,-100.00,WSW,240,7.0,8.0,72,0.00,,,0.00,,2013-03-13 18:02:00,
2013-03-13 13:12:00,21.0,14.0,-100.00,SW,235,6.0,8.0,71,0.00,,,0.00,,2013-03-13 18:12:00,
2013-03-13 13:22:00,22.0,14.0,-100.00,SW,235,7.0,9.0,70,0.00,,,0.00,,2013-03-13 18:22:00,
2013-03-13 13:33:00,23.0,14.0,-100.00,WSW,245,6.0,7.0,70,0.00,,,0.00,,2013-03-13 18:33:00,
2013-03-13 13:42:00,24.0,16.0,-100.00,WSW,250,7.0,10.0,69,0.00,,,0.00,,2013-03-13 18:42:00,
2013-03-13 13:52:00,24.0,16.0,-100.00,WSW,255,8.0,11.0,70,0.00,,,0.00,,2013-03-13 18:52:00,
2013-03-13 14:02:00,25.0,16.0,-100.00,WSW,240,7.0,9.0,69,0.00,,,0.00,,2013-03-13 19:02:00,
2013-03-13 14:12:00,25.0,16.0,-100.00,WSW,240,7.0,9.0,68,0.00,,,0.00,,2013-03-13 19:12:00,
2013-03-13 14:22:00,25.0,16.0,-100.00,WSW,245,8.0,11.0,68,0.00,,,0.00,,2013-03-13 19:22:00,
2013-03-13 14:32:00,25.0,18.0,-100.00,WSW,245,9.0,10.0,69,0.00,,,0.00,,2013-03-13 19:32:00,
2013-03-13 14:42:00,26.0,18.0,-100.00,WSW,250,7.0,10.0,70,0.00,,,0.00,,2013-03-13 19:42:00,
2013-03-13 14:52:00,27.0,18.0,-100.00,WNW,295,7.0,10.0,66,0.00,,,0.00,,2013-03-13 19:52:00,
2013-03-13 15:02:00,26.0,16.0,-100.00,WNW,285,7.0,11.0,64,0.00,,,0.00,,2013-03-13 20:02:00,
2013-03-13 15:12:00,26.0,16.0,-100.00,West,265,6.0,11.0,63,0.00,,,0.00,,2013-03-13 20:12:00,
2013-03-13 15:22:00,27.0,16.0,-100.00,West,260,6.0,9.0,62,0.00,,,0.00,,2013-03-13 20:22:00,
2013-03-13 15:32:00,27.0,16.0,-100.00,West,275,6.0,9.0,63,0.00,,,0.00,,2013-03-13 20:32:00,
2013-03-13 15:42:00,27.0,16.0,-100.00,WNW,290,6.0,10.0,63,0.00,,,0.00,,2013-03-13 20:42:00,
2013-03-13 15:52:00,27.0,16.0,-100.00,West,265,6.0,7.0,62,0.00,,,0.00,,2013-03-13 20:52:00,
2013-03-13 16:02:00,27.0,16.0,-100.00,WSW,245,7.0,10.0,63,0.00,,,0.00,,2013-03-13 21:02:00,
2013-03-13 16:12:00,27.0,16.0,-100.00,WSW,245,7.0,9.0,65,0.00,,,0.00,,2013-03-13 21:12:00,
2013-03-13 16:22:00,27.0,18.0,-100.00,West,270,8.0,11.0,66,0.00,,,0.00,,2013-03-13 21:22:00,
2013-03-13 16:33:00,27.0,18.0,-100.00,WSW,240,7.0,9.0,65,0.00,,,0.00,,2013-03-13 21:33:00,
2013-03-13 16:42:00,27.0,16.0,-100.00,West,275,7.0,10.0,62,0.00,,,0.00,,2013-03-13 21:42:00,
2013-03-13 16:51:00,27.0,16.0,-100.00,West,265,7.0,9.0,61,0.00,,,0.00,,2013-03-13 21:51:00,
2013-03-13 17:02:00,27.0,16.0,-100.00,WSW,250,8.0,10.0,62,0.00,,,0.00,,2013-03-13 22:02:00,
2013-03-13 17:12:00,27.0,16.0,-100.00,WSW,250,7.0,10.0,62,0.00,,,0.00,,2013-03-13 22:12:00,
2013-03-13 17:22:00,26.0,14.0,-100.00,WSW,250,7.0,11.0,58,0.00,,,0.00,,2013-03-13 22:22:00,
2013-03-13 17:32:00,27.0,14.0,-100.00,WSW,245,6.0,9.0,59,0.00,,,0.00,,2013-03-13 22:32:00,
2013-03-13 17:42:00,27.0,14.0,-100.00,WSW,245,7.0,8.0,59,0.00,,,0.00,,2013-03-13 22:42:00,
2013-03-13 17:52:00,27.0,14.0,-100.00,WSW,245,5.0,7.0,60,0.00,,,0.00,,2013-03-13 22:52:00,
2013-03-13 18:02:00,27.0,14.0,-100.00,WSW,255,4.0,6.0,60,0.00,,,0.00,,2013-03-13 23:02:00,
2013-03-13 18:12:00,26.0,16.0,-100.00,WSW,245,6.0,7.0,62,0.00,,,0.00,,2013-03-13 23:12:00,
2013-03-13 18:22:00,26.0,16.0,-100.00,WSW,245,6.0,7.0,63,0.00,,,0.00,,2013-03-13 23:22:00,
2013-03-13 18:32:00,26.0,16.0,-100.00,WSW,240,4.0,6.0,66,0.00,,,0.00,,2013-03-13 23:32:00,
2013-03-13 18:42:00,25.0,16.0,-100.00,West,260,6.0,6.0,68,0.00,,,0.00,,2013-03-13 23:42:00,
2013-03-13 18:52:00,24.0,16.0,-100.00,West,260,4.0,5.0,70,0.00,,,0.00,,2013-03-13 23:52:00,
2013-03-13 19:02:00,24.0,16.0,-100.00,West,265,4.0,5.0,71,0.00,,,0.00,,2013-03-14 00:02:00,
2013-03-13 19:12:00,24.0,16.0,-100.00,West,265,4.0,5.0,71,0.00,,,0.00,,2013-03-14 00:12:00,
2013-03-13 19:22:00,23.0,16.0,-100.00,WSW,245,3.0,4.0,72,0.00,,,0.00,,2013-03-14 00:22:00,
2013-03-13 19:32:00,23.0,16.0,-100.00,WSW,245,2.0,3.0,73,0.00,,,0.00,,2013-03-14 00:32:00,
2013-03-13 19:42:00,22.0,16.0,-100.00,West,260,4.0,4.0,74,0.00,,,0.00,,2013-03-14 00:42:00,
2013-03-13 19:52:00,22.0,16.0,-100.00,West,270,2.0,4.0,75,0.00,,,0.00,,2013-03-14 00:52:00,
2013-03-13 20:02:00,22.0,16.0,-100.00,West,265,2.0,2.0,76,0.00,,,0.00,,2013-03-14 01:02:00,
2013-03-13 20:12:00,22.0,16.0,-100.00,WSW,245,2.0,2.0,76,0.00,,,0.00,,2013-03-14 01:12:00,
2013-03-13 20:22:00,22.0,16.0,-100.00,SW,220,2.0,2.0,76,0.00,,,0.00,,2013-03-14 01:22:00,
2013-03-13 20:32:00,22.0,16.0,-100.00,SSW,200,2.0,3.0,77,0.00,,,0.00,,2013-03-14 01:32:00,
2013-03-13 20:42:00,22.0,16.0,-100.00,SSW,195,3.0,3.0,77,0.00,,,0.00,,2013-03-14 01:42:00,
2013-03-13 20:52:00,22.0,16.0,-100.00,SSE,165,4.0,4.0,77,0.00,,,0.00,,2013-03-14 01:52:00,
2013-03-13 21:02:00,21.0,16.0,-100.00,SSE,150,4.0,4.0,78,0.00,,,0.00,,2013-03-14 02:02:00,
2013-03-13 21:12:00,21.0,16.0,-100.00,SSE,150,4.0,5.0,79,0.00,,,0.00,,2013-03-14 02:12:00,
2013-03-13 21:22:00,22.0,16.0,-100.00,SSE,165,6.0,6.0,80,0.00,,,0.00,,2013-03-14 02:22:00,
2013-03-13 21:32:00,22.0,16.0,-100.00,South,190,5.0,6.0,79,0.00,,,0.00,,2013-03-14 02:32:00,
2013-03-13 21:42:00,22.0,16.0,-100.00,South,190,5.0,6.0,79,0.00,,,0.00,,2013-03-14 02:42:00,
2013-03-13 21:51:00,22.0,16.0,-100.00,South,190,5.0,6.0,79,0.00,,,0.00,,2013-03-14 02:51:00,
2013-03-13 22:01:00,23.0,18.0,-100.00,South,180,7.0,8.0,80,0.00,,,0.00,,2013-03-14 03:01:00,
2013-03-13 22:12:00,23.0,18.0,-100.00,South,180,9.0,12.0,81,0.00,,,0.00,,2013-03-14 03:12:00,
2013-03-13 22:22:00,24.0,19.0,-100.00,South,185,9.0,12.0,81,0.00,,,0.00,,2013-03-14 03:22:00,
2013-03-13 22:32:00,24.0,19.0,-100.00,South,180,9.0,11.0,81,0.00,,,0.00,,2013-03-14 03:32:00,
2013-03-13 22:42:00,24.0,19.0,-100.00,South,180,9.0,12.0,81,0.00,,,0.00,,2013-03-14 03:42:00,
2013-03-13 22:52:00,24.0,19.0,-100.00,South,180,9.0,12.0,81,0.00,,,0.00,,2013-03-14 03:52:00,
2013-03-13 23:12:00,24.0,19.0,-100.00,South,185,9.0,11.0,81,0.00,,,0.00,,2013-03-14 04:12:00,
2013-03-13 23:22:00,24.0,18.0,-100.00,South,185,10.0,12.0,80,0.00,,,0.00,,2013-03-14 04:22:00,
2013-03-13 23:32:00,24.0,18.0,-100.00,South,185,12.0,14.0,79,0.00,,,0.00,,2013-03-14 04:32:00,
2013-03-13 23:42:00,24.0,18.0,-100.00,South,185,12.0,15.0,78,0.00,,,0.00,,2013-03-14 04:42:00,
2013-03-13 23:52:00,24.0,18.0,-100.00,SSW,195,12.0,14.0,77,0.00,,,0.00,,2013-03-14 04:52:00,